Latest Coastal Weather Observations for Frederick Reef

IDQ60701

Issued at 1:25 am EST Friday 1 August 2014 (issued every 10 minutes, with the page automatically refreshed every 10 minutes)

About coastal observations | Map of coastal stations | Coastal observations for QLD | Marine services | Other Formats
Station Details ID: 200701 Name: FREDERICK REEF Lat: -20.94 Lon: 154.40 Height: 4.9 m
Data from the previous 72 hours. | See also: Recent months for locations in Queensland
Date/Time
EST
Temp

°C
Wind Pressure Rain
since 9am
mm
Weather Cloud Vis
km
Sea
Height
m
Swell
Dir
 
Speed
knots
Gust
knots
hPa Trend Height
m
Period
s
Dir
01/01:00am 22.5 ENE 13 15 1017.8 - - - - - - - - -
01/12:30am 22.5 ENE 16 18 1017.9 - - - - - - - - -
01/12:00am 22.8 ENE 13 15 1018.3 - - - - - - - - -
 
Date/Time
EST
Temp

°C
Wind Pressure Rain
since 9am
mm
Weather Cloud Vis
km
Sea
Height
m
Swell
Dir
 
Speed
knots
Gust
knots
hPa Trend Height
m
Period
s
Dir
31/11:30pm 22.6 ENE 13 15 1018.3 - - - - - - - - -
31/11:00pm 22.4 NE 14 16 1018.3 - - - - - - - - -
31/10:30pm 22.3 ENE 14 16 1018.6 - - - - - - - - -
31/10:00pm 22.5 ENE 13 15 1018.7 - - - - - - - - -
31/09:30pm 22.3 ENE 13 16 1018.9 - - - - - - - - -
31/09:00pm 22.2 ENE 14 16 1019.0 - - - - - - - - -
31/08:00pm 22.0 E 14 16 1018.6 - - - - - - - - -
31/07:30pm 22.0 ENE 12 14 1018.4 - - - - - - - - -
31/06:30pm 21.6 ESE 9 10 1018.1 - - - - - - - - -
31/06:00pm 19.7 E 10 13 1017.9 - - - - - - - - -
31/05:30pm 19.8 E 13 15 1017.9 - - - - - - - - -
31/05:00pm 20.2 SE 11 15 1017.7 - - - - - - - - -
31/04:30pm 20.5 SSE 16 18 1017.4 - - - - - - - - -
31/04:00pm 20.9 S 13 15 1017.3 - - - - - - - - -
31/03:30pm 20.4 SSE 12 14 1017.3 - - - - - - - - -
31/03:00pm 20.9 S 11 14 1017.2 - - - - - - - - -
31/02:30pm 20.9 S 9 11 1017.2 - - - - - - - - -
31/02:00pm 21.1 SSW 7 8 1017.6 - - - - - - - - -
31/01:30pm 21.8 SSW 10 12 1017.7 - - - - - - - - -
31/01:00pm 21.8 NNW 9 11 1018.1 - - - - - - - - -
31/12:30pm 21.4 WNW 7 9 1018.8 - - - - - - - - -
31/12:00pm 21.6 S 7 9 1019.1 - - - - - - - - -
31/11:30am 21.9 N 6 8 1019.6 - - - - - - - - -
31/11:00am 20.6 ENE 11 19 1020.0 - - - - - - - - -
31/10:30am 20.8 NE 22 24 1019.9 - - - - - - - - -
31/10:11am 22.1 NE 22 23 1019.8 - - - - - - - - -
31/10:00am 22.5 NE 11 13 1020.1 - - - - - - - - -
31/09:30am 21.3 N 16 18 1020.4 - - - - - - - - -
31/09:00am 20.6 NNE 21 24 1020.3 - - - - - - - - -
31/08:47am 20.8 NNE 21 23 1020.4 - - - - - - - - -
31/08:30am 20.7 E 14 19 1020.4 - - - - - - - - -
31/08:00am 22.5 ESE 11 14 1020.1 - - - - - - - - -
31/07:30am 22.7 E 12 14 1019.8 - - - - - - - - -
31/07:00am 22.6 E 15 17 1019.5 - - - - - - - - -
31/06:30am 22.8 E 17 19 1019.4 - - - - - - - - -
31/06:00am 22.5 E 19 22 1019.3 - - - - - - - - -
31/05:30am 22.6 E 17 21 1019.1 - - - - - - - - -
31/05:00am 22.6 E 14 17 1019.0 - - - - - - - - -
31/04:30am 22.5 E 17 19 1018.8 - - - - - - - - -
31/04:00am 22.6 E 16 19 1018.7 - - - - - - - - -
31/03:30am 22.5 E 15 17 1018.7 - - - - - - - - -
31/03:00am 22.4 E 17 19 1018.7 - - - - - - - - -
31/02:30am 22.2 E 17 19 1018.8 - - - - - - - - -
31/02:00am 22.4 ENE 17 19 1019.1 - - - - - - - - -
31/01:30am 22.4 E 17 19 1019.2 - - - - - - - - -
31/01:00am 22.5 ENE 17 20 1019.3 - - - - - - - - -
31/12:30am 22.6 ENE 17 19 1019.6 - - - - - - - - -
31/12:00am 22.7 E 19 21 1019.8 - - - - - - - - -
 
Date/Time
EST
Temp

°C
Wind Pressure Rain
since 9am
mm
Weather Cloud Vis
km
Sea
Height
m
Swell
Dir
 
Speed
knots
Gust
knots
hPa Trend Height
m
Period
s
Dir
30/11:30pm 22.7 E 19 22 1019.8 - - - - - - - - -
30/11:00pm 22.5 ENE 20 23 1020.0 - - - - - - - - -
30/10:30pm 22.4 E 20 23 1020.3 - - - - - - - - -
30/10:26pm 22.5 E 20 23 1020.4 - - - - - - - - -
30/10:00pm 21.6 ESE 14 18 1020.7 - - - - - - - - -
30/09:30pm 21.6 SE 17 19 1020.8 - - - - - - - - -
30/09:00pm 21.7 SSE 17 19 1020.8 - - - - - - - - -
30/08:30pm 21.6 SSE 18 22 1020.6 - - - - - - - - -
30/08:00pm 21.7 SSE 18 21 1020.2 - - - - - - - - -
30/07:30pm 21.9 SE 17 20 1020.1 - - - - - - - - -
30/07:00pm 22.5 E 15 17 1019.8 - - - - - - - - -
30/06:30pm 22.3 E 16 18 1019.7 - - - - - - - - -
30/06:00pm 22.2 E 15 17 1019.4 - - - - - - - - -
30/05:30pm 21.9 ESE 14 18 1019.3 - - - - - - - - -
30/05:00pm 22.0 ESE 16 19 1019.2 - - - - - - - - -
30/04:30pm 22.4 E 12 15 1018.9 - - - - - - - - -
30/04:00pm 22.6 E 12 14 1018.9 - - - - - - - - -
30/03:30pm 22.7 E 10 12 1018.9 - - - - - - - - -
30/03:00pm 22.6 E 10 13 1018.8 - - - - - - - - -
30/02:30pm 22.6 E 12 14 1019.0 - - - - - - - - -
30/02:00pm 22.6 E 12 14 1019.3 - - - - - - - - -
30/01:30pm 22.6 E 13 15 1019.5 - - - - - - - - -
30/01:00pm 22.5 ESE 14 18 1020.0 - - - - - - - - -
30/12:30pm 22.6 E 16 19 1020.4 - - - - - - - - -
30/12:00pm 22.6 E 15 17 1020.9 - - - - - - - - -
30/11:30am 22.6 E 16 19 1021.4 - - - - - - - - -
30/11:00am 22.7 E 16 19 1021.8 - - - - - - - - -
30/10:30am 22.7 E 15 18 1022.0 - - - - - - - - -
30/10:00am 22.8 E 13 16 1022.3 - - - - - - - - -
30/09:30am 22.9 E 12 15 1022.5 - - - - - - - - -
30/09:00am 22.8 E 12 15 1022.6 - - - - - - - - -
30/08:30am 23.0 ESE 10 12 1022.5 - - - - - - - - -
30/08:00am 23.0 SE 10 12 1022.2 - - - - - - - - -
30/07:30am 22.8 ESE 13 15 1021.8 - - - - - - - - -
30/07:00am 22.8 E 12 15 1021.4 - - - - - - - - -
30/06:30am 22.7 E 13 15 1021.0 - - - - - - - - -
30/06:00am 22.6 E 15 18 1020.6 - - - - - - - - -
30/05:30am 22.6 E 19 22 1020.0 - - - - - - - - -
30/05:00am 22.5 E 15 18 1019.9 - - - - - - - - -
30/04:30am 22.4 E 15 18 1019.8 - - - - - - - - -
30/04:00am 22.4 E 15 17 1019.7 - - - - - - - - -
30/03:30am 22.4 E 9 11 1019.9 - - - - - - - - -
30/03:00am 22.5 E 11 14 1019.9 - - - - - - - - -
30/02:30am 22.6 E 14 16 1020.0 - - - - - - - - -
30/02:00am 22.3 ENE 15 17 1020.2 - - - - - - - - -
30/01:30am 22.2 ENE 14 16 1020.5 - - - - - - - - -
30/01:00am 22.3 E 13 15 1020.6 - - - - - - - - -
30/12:30am 22.2 E 16 20 1020.9 - - - - - - - - -
30/12:00am 22.5 E 11 13 1021.0 - - - - - - - - -
 
Date/Time
EST
Temp

°C
Wind Pressure Rain
since 9am
mm
Weather Cloud Vis
km
Sea
Height
m
Swell
Dir
 
Speed
knots
Gust
knots
hPa Trend Height
m
Period
s
Dir
29/11:30pm 22.5 E 10 14 1020.9 - - - - - - - - -
29/11:00pm 22.4 E 14 19 1020.8 - - - - - - - - -
29/10:30pm 22.4 E 11 15 1020.9 - - - - - - - - -
29/10:00pm 21.9 ESE 14 16 1020.9 - - - - - - - - -
29/09:30pm 22.2 ESE 14 17 1021.2 - - - - - - - - -
29/09:00pm 21.7 SE 13 15 1021.0 - - - - - - - - -
29/08:30pm 21.8 ESE 13 16 1020.9 - - - - - - - - -
29/08:00pm 21.7 SE 13 16 1021.0 - - - - - - - - -
29/07:30pm 21.7 SE 14 16 1021.0 - - - - - - - - -
29/07:00pm 21.4 SSE 15 17 1020.9 - - - - - - - - -
29/06:30pm 21.5 SSE 15 16 1020.7 - - - - - - - - -
29/06:00pm 21.6 SE 15 19 1020.5 - - - - - - - - -
29/05:30pm 21.6 SE 17 20 1020.2 - - - - - - - - -
29/05:00pm 21.7 SSE 13 15 1019.9 - - - - - - - - -
29/04:30pm 22.0 SE 11 14 1019.7 - - - - - - - - -
29/04:00pm 22.4 SE 11 13 1019.6 - - - - - - - - -
29/03:30pm 22.3 ESE 10 12 1019.4 - - - - - - - - -
29/03:00pm 22.3 SE 9 11 1019.4 - - - - - - - - -
29/02:30pm 22.1 SSE 9 11 1019.5 - - - - - - - - -
29/02:00pm 22.2 SE 7 9 1019.7 - - - - - - - - -
29/01:30pm 22.1 SSE 7 11 1019.9 - - - - - - - - -
29/01:00pm 22.1 SE 9 11 1020.2 - - - - - - - - -
29/12:30pm 22.1 SE 8 10 1020.5 - - - - - - - - -
29/12:00pm 22.2 ESE 9 11 1020.8 - - - - - - - - -
29/11:30am 22.3 E 9 12 1021.2 - - - - - - - - -
29/11:00am 22.1 E 12 14 1021.5 - - - - - - - - -
29/10:30am 22.1 E 10 13 1021.8 - - - - - - - - -
29/10:00am 22.0 ESE 11 13 1022.2 - - - - - - - - -
29/09:30am 22.0 E 11 13 1022.4 - - - - - - - - -
29/09:00am 22.0 E 11 14 1022.5 - - - - - - - - -
29/08:30am 22.0 ESE 11 16 1022.4 - - - - - - - - -
29/08:00am 21.9 SE 12 17 1022.2 - - - - - - - - -
29/07:30am 22.0 ESE 12 19 1021.9 - - - - - - - - -
29/07:00am 22.0 ESE 14 18 1021.4 - - - - - - - - -
29/06:30am 22.2 ESE 14 17 1021.0 - - - - - - - - -
29/06:00am 21.8 SSE 11 15 1020.8 - - - - - - - - -
29/05:30am 21.9 ESE 12 15 1020.5 - - - - - - - - -
29/05:00am 22.0 E 11 16 1020.1 - - - - - - - - -
29/04:30am 21.9 E 10 12 1020.0 - - - - - - - - -
29/04:00am 21.9 ESE 15 19 1019.7 - - - - - - - - -
29/03:30am 21.9 ESE 12 15 1019.8 - - - - - - - - -
29/03:00am 21.7 ESE 12 15 1019.8 - - - - - - - - -
29/02:30am 21.9 ESE 16 21 1019.7 - - - - - - - - -
29/02:00am 21.8 SE 17 20 1019.8 - - - - - - - - -
29/01:30am 21.6 SE 17 21 1019.7 - - - - - - - - -

Other Formats:

Comma delimited format used in spreadsheet applications
http://www.bom.gov.au/fwo/IDQ60701/IDQ60701.94393.axf

JavaScript Object Notation format (JSON) in row-major order
http://www.bom.gov.au/fwo/IDQ60701/IDQ60701.94393.json